"Date","subscriberCount","subscriberChange","viewCount","viewChange","videoCount","videoChange","commentCount","commentChange"
"2020-10-15 00:02:05","8950000","0","7619654517","0","2219","1","0","0"
"2020-10-16 00:02:05","8950000","0","7622490861","2836344","2219","0","0","0"
"2020-10-17 00:02:04","8950000","0","7623942909","1452048","2220","1","0","0"
"2020-10-18 00:02:05","8950000","0","7626260026","2317117","2221","1","0","0"
"2020-10-19 00:02:05","8950000","0","7629117321","2857295","2221","0","0","0"
"2020-10-20 00:02:05","8950000","0","7630927975","1810654","2222","1","0","0"
"2020-10-21 00:02:04","8950000","0","7633597397","2669422","2222","0","0","0"
"2020-10-22 00:02:04","8960000","10000","7635195448","1598051","2222","0","0","0"
"2020-10-23 00:02:06","8960000","0","7636948781","1753333","2223","1","0","0"
"2020-10-24 00:02:05","8960000","0","7639094612","2145831","2223","0","0","0"
"2020-10-25 00:02:05","8960000","0","7640337445","1242833","2224","1","0","0"
"2020-10-27 00:02:04","8960000","0","7644739457","4402012","2225","1","0","0"
"2020-10-28 00:02:04","8960000","0","7645879572","1140115","2225","0","0","0"
"2020-10-29 00:02:04","8960000","0","7647028454","1148882","2225","0","","0"
"2020-10-30 00:02:03","8960000","0","7648283079","1254625","2226","1","","0"
"2020-10-31 00:02:04","8960000","0","7650500719","2217640","2226","0","0","0"
"2020-11-01 00:02:04","8960000","0","7652297789","1797070","2226","0","0","0"
"2020-11-02 00:02:02","8970000","10000","7654413913","2116124","2226","0","","0"
"2020-11-03 00:02:04","8970000","0","7656204605","1790692","2227","1","0","0"
"2020-11-04 00:02:04","8970000","0","7659863513","3658908","2227","0","","0"
"2020-11-05 00:02:06","8970000","0","7661172951","1309438","2228","1","0","0"
"2020-11-06 00:02:05","8980000","10000","7664044890","2871939","2228","0","0","0"
"2020-11-07 00:02:06","8980000","0","7665448347","1403457","2228","0","0","0"
"2020-11-08 00:02:05","8980000","0","7667669163","2220816","2229","1","0","0"
"2020-11-09 00:02:06","8980000","0","7670441669","2772506","2230","1","","0"
"2020-11-10 00:02:05","8980000","0","7672893839","2452170","2230","0","","0"
"2020-11-11 00:02:04","8980000","0","7674381597","1487758","2230","0","","0"
"2020-11-12 00:02:03","8980000","0","7675839520","1457923","2230","0","","0"
"2020-11-13 00:02:03","8980000","0","7677080090","1240570","2230","0","","0"
"2020-11-14 00:02:02","8980000","0","7678425489","1345399","2231","1","","0"
"2020-11-15 00:02:03","8980000","0","7680608018","2182529","2232","1","","0"
"2020-11-16 00:02:04","8980000","0","7683652480","3044462","2233","1","","0"
"2020-11-17 00:02:02","8980000","0","7685324660","1672180","2233","0","","0"
"2020-11-18 00:02:03","8990000","10000","7686702795","1378135","2234","1","","0"
"2020-11-19 00:02:02","8990000","0","7688492604","1789809","2235","1","","0"
"2020-11-20 00:02:03","8990000","0","7690899136","2406532","2236","1","","0"
"2020-11-21 00:02:02","8990000","0","7693107435","2208299","2237","1","","0"
"2020-11-22 00:02:03","8990000","0","7695872924","2765489","2238","1","","0"
"2020-11-23 00:02:03","8990000","0","7698344710","2471786","2238","0","","0"
"2020-11-24 00:02:03","9000000","10000","7700595451","2250741","2239","1","","0"
"2020-11-25 00:02:02","9010000","10000","7702759434","2163983","2239","0","","0"
"2020-11-26 00:02:03","9010000","0","7704235793","1476359","2240","1","","0"
"2020-11-27 00:02:03","9020000","10000","7705956802","1721009","2241","1","","0"
"2020-11-28 00:02:03","9020000","0","7708078632","2121830","2241","0","","0"
"2020-11-29 00:02:03","9020000","0","7709971476","1892844","2242","1","","0"
"2020-11-30 00:02:03","9020000","0","7712995095","3023619","2243","1","","0"
"2020-12-01 00:02:03","9020000","0","7714971375","1976280","2243","0","","0"
"2020-12-02 00:02:03","9020000","0","7716291534","1320159","2243","0","","0"
"2020-12-03 00:02:03","9020000","0","7717509365","1217831","2244","1","","0"
"2020-12-04 00:02:03","9020000","0","7719237666","1728301","2244","0","","0"
"2020-12-05 00:02:06","9030000","10000","7720255162","1017496","2244","0","","0"
"2020-12-06 00:02:03","9030000","0","7721578603","1323441","2244","0","","0"
"2020-12-07 00:02:03","9030000","0","7723242027","1663424","2245","1","","0"
"2020-12-08 00:02:03","9040000","10000","7726045708","2803681","2245","0","","0"
"2020-12-09 00:02:03","9040000","0","7727837791","1792083","2245","0","","0"
"2020-12-10 00:02:03","9040000","0","7729162186","1324395","2246","1","","0"
"2020-12-11 00:02:03","9040000","0","7730626261","1464075","2246","0","","0"
"2020-12-12 00:02:04","9040000","0","7731609560","983299","2247","1","","0"
"2020-12-13 00:02:04","9040000","0","7734209891","2600331","2248","1","","0"
"2020-12-14 00:02:04","9040000","0","7736229412","2019521","2248","0","","0"
"2020-12-15 00:02:05","9050000","10000","7737623055","1393643","2249","1","","0"
"2020-12-16 00:02:04","9050000","0","7739785407","2162352","2249","0","","0"
"2020-12-17 00:02:04","9050000","0","7741117814","1332407","2249","0","","0"
"2020-12-18 00:02:04","9050000","0","7742501547","1383733","2250","1","","0"
"2020-12-19 00:02:04","9050000","0","7743782878","1281331","2250","0","","0"
"2020-12-20 00:02:04","9050000","0","7745581003","1798125","2251","1","","0"
"2020-12-21 00:02:04","9050000","0","7747695985","2114982","2251","0","","0"
"2020-12-22 00:02:03","9050000","0","7748779776","1083791","2252","1","","0"
"2020-12-23 00:02:03","9050000","0","7750614563","1834787","2252","0","","0"
"2020-12-24 00:02:04","9050000","0","7752077058","1462495","2253","1","","0"
"2020-12-25 00:02:04","9050000","0","7754422549","2345491","2254","1","","0"
"2020-12-26 00:02:04","9050000","0","7756836955","2414406","2254","0","","0"
"2020-12-27 00:02:03","9050000","0","7758711143","1874188","2255","1","","0"
"2020-12-28 00:02:04","9060000","10000","7761425301","2714158","2255","0","","0"
"2020-12-29 00:02:04","9060000","0","7763499333","2074032","2256","1","","0"
"2020-12-30 00:02:03","9060000","0","7765782226","2282893","2257","1","","0"
"2020-12-31 00:02:03","9060000","0","7767983989","2201763","2257","0","","0"
"2021-01-01 00:02:04","9060000","0","7769753772","1769783","2258","1","","0"
"2021-01-02 00:02:05","9060000","0","7771290069","1536297","2258","0","","0"
"2021-01-03 00:02:05","9060000","0","7773120048","1829979","2259","1","","0"
"2021-01-04 00:02:05","9060000","0","7775475152","2355104","2260","1","","0"
"2021-01-05 00:02:06","9060000","0","7778008835","2533683","2260","0","","0"
"2021-01-06 00:02:05","9060000","0","7779792844","1784009","2260","0","","0"
"2021-01-07 00:02:02","9060000","0","7781357676","1564832","2260","0","","0"
"2021-01-08 00:02:03","9060000","0","7782844983","1487307","2260","0","","0"
"2021-01-09 00:02:02","9060000","0","7783998766","1153783","2260","0","","0"
"2021-01-10 00:02:03","9060000","0","7785672248","1673482","2261","1","","0"
"2021-01-11 00:02:03","9060000","0","7788009417","2337169","2261","0","","0"
"2021-01-12 00:02:03","9060000","0","7789742948","1733531","2261","0","","0"
"2021-01-13 00:02:03","9060000","0","7790821293","1078345","2261","0","","0"
"2021-01-14 00:02:02","9060000","0","7791805803","984510","2262","1","","0"
"2021-01-15 00:02:03","9060000","0","7793360469","1554666","2262","0","","0"
"2021-01-16 00:02:03","9060000","0","7794586795","1226326","2263","1","","0"
"2021-01-17 00:02:03","9060000","0","7796332188","1745393","2264","1","","0"
"2021-01-18 00:02:04","9060000","0","7798573645","2241457","2263","-1","","0"
"2021-01-19 00:02:02","9060000","0","7799794341","1220696","2265","2","","0"
"2021-01-20 00:02:03","9060000","0","7801099139","1304798","2265","0","","0"
"2021-01-21 00:02:03","9060000","0","7802315486","1216347","2266","1","","0"
"2021-01-22 00:02:02","9060000","0","7804374700","2059214","2267","1","","0"
"2021-01-23 00:02:03","9060000","0","7807877963","3503263","2267","0","","0"
"2021-01-24 00:02:02","9070000","10000","7810729684","2851721","2267","0","","0"
"2021-01-25 00:02:03","9070000","0","7813034569","2304885","2267","0","","0"
"2021-01-26 00:02:03","9070000","0","7814370044","1335475","2267","0","","0"
"2021-01-27 00:02:03","9070000","0","7815682425","1312381","2267","0","","0"
"2021-01-28 00:02:02","9070000","0","7816889957","1207532","2267","0","","0"
"2021-01-29 00:02:03","9070000","0","7818169129","1279172","2268","1","","0"
"2021-01-30 00:02:03","9070000","0","7820041860","1872731","2268","0","","0"
"2021-01-31 00:02:02","9070000","0","7822443270","2401410","2269","1","","0"
"2021-02-01 00:02:03","9080000","10000","7826593123","4149853","2269","0","","0"
"2021-02-02 00:02:02","9080000","0","7828873744","2280621","2269","0","","0"
"2021-02-03 00:02:03","9080000","0","7830569698","1695954","2270","1","","0"
"2021-02-04 00:02:03","9080000","0","7832317793","1748095","2270","0","","0"
"2021-02-05 00:02:03","9080000","0","7833921825","1604032","2271","1","","0"
"2021-02-06 00:02:03","9080000","0","7836174631","2252806","2271","0","","0"
"2021-02-07 00:02:03","9080000","0","7838214346","2039715","2271","0","","0"
"2021-02-08 00:02:03","9090000","10000","7840491880","2277534","2272","1","","0"
"2021-02-09 00:02:03","9090000","0","7842307664","1815784","2272","0","","0"
"2021-02-10 00:02:03","9090000","0","7843655556","1347892","2272","0","","0"
"2021-02-11 00:02:03","9090000","0","7844650699","995143","2272","0","","0"
"2021-02-12 00:02:02","9090000","0","7846942245","2291546","2273","1","","0"
"2021-02-13 00:02:03","9090000","0","7848962845","2020600","2273","0","","0"
"2021-02-14 00:02:03","9090000","0","7850800802","1837957","2273","0","","0"
"2021-02-15 00:02:03","9090000","0","7852376148","1575346","2274","1","","0"
"2021-02-16 00:02:03","9090000","0","7855578415","3202267","2274","0","","0"
"2021-02-17 00:02:03","9100000","10000","7857166724","1588309","2274","0","","0"
"2021-02-18 00:02:03","9100000","0","7858862943","1696219","2275","1","","0"
"2021-02-19 00:02:03","9100000","0","7861215137","2352194","2275","0","","0"
"2021-02-20 00:02:04","9100000","0","7862531048","1315911","2275","0","","0"
"2021-02-21 00:02:03","9100000","0","7864035586","1504538","2275","0","","0"
"2021-02-22 00:02:03","9100000","0","7865351171","1315585","2276","1","","0"
"2021-02-23 00:02:03","9100000","0","7867128286","1777115","2276","0","","0"
"2021-02-24 00:02:03","9100000","0","7868659982","1531696","2276","0","","0"
"2021-02-25 00:02:03","9100000","0","7869569822","909840","2276","0","","0"
"2021-02-26 00:02:03","9100000","0","7870368916","799094","2276","0","","0"
"2021-02-27 00:02:03","9100000","0","7871235420","866504","2277","1","","0"
"2021-02-28 00:02:03","9100000","0","7872814233","1578813","2278","1","","0"
"2021-03-01 00:02:03","9100000","0","7874558865","1744632","2278","0","","0"
"2021-03-02 00:02:04","9100000","0","7875597587","1038722","2279","1","","0"
"2021-03-03 00:02:03","9100000","0","7877017463","1419876","2279","0","","0"
"2021-03-04 00:02:03","9100000","0","7878261190","1243727","2280","1","","0"
"2021-03-05 00:02:03","9100000","0","7878653509","392319","2280","0","","0"
"2021-03-06 00:02:03","9100000","0","7879841942","1188433","2280","0","","0"
"2021-03-07 00:02:03","9100000","0","7880853829","1011887","2281","1","","0"
"2021-03-08 00:02:03","9100000","0","7882760001","1906172","2282","1","","0"
"2021-03-09 00:02:03","9100000","0","7884710404","1950403","2282","0","","0"
"2021-03-10 00:02:03","9100000","0","7886048930","1338526","2282","0","","0"
"2021-03-11 00:02:03","9100000","0","7887210775","1161845","2283","1","","0"
"2021-03-12 00:02:03","9100000","0","7888452273","1241498","2283","0","","0"
"2021-03-13 00:02:03","9100000","0","7889852427","1400154","2284","1","","0"
"2021-03-14 00:02:03","9100000","0","7891497291","1644864","2285","1","","0"
"2021-03-15 00:02:03","9100000","0","7893432650","1935359","2285","0","","0"
"2021-03-16 00:02:02","9100000","0","7894941077","1508427","2286","1","","0"
"2021-03-17 00:02:03","9100000","0","7896255559","1314482","2286","0","","0"
"2021-03-18 00:02:03","9100000","0","7897395932","1140373","2287","1","","0"
"2021-03-19 00:02:03","9110000","10000","7898868353","1472421","2282","-5","","0"
"2021-03-20 00:02:03","9110000","0","7901135531","2267178","2283","1","","0"
"2021-03-21 00:02:03","9120000","10000","7871034453","-30101078","2283","0","","0"
"2021-03-22 00:02:03","9120000","0","7872565981","1531528","2284","1","","0"
"2021-03-23 00:02:04","9120000","0","7874443283","1877302","2285","1","","0"
"2021-03-24 00:02:03","9120000","0","7875870121","1426838","2286","1","","0"
"2021-03-25 00:02:03","9120000","0","7877661840","1791719","2287","1","","0"
"2021-03-26 00:02:03","9120000","0","7879996610","2334770","2287","0","","0"
"2021-03-27 00:02:03","9120000","0","7881779746","1783136","2288","1","","0"
"2021-03-28 00:02:03","9120000","0","7883929598","2149852","2289","1","","0"
"2021-03-29 00:02:03","9120000","0","7885935299","2005701","2289","0","","0"
"2021-03-30 00:02:03","9130000","10000","7888196611","2261312","2290","1","","0"
"2021-03-31 00:02:03","9130000","0","7890503839","2307228","2289","-1","","0"
"2021-04-01 00:02:03","9130000","0","7892857594","2353755","2290","1","","0"
"2021-04-02 00:02:03","9130000","0","7894796418","1938824","2291","1","","0"
"2021-04-03 00:02:03","9130000","0","7897033455","2237037","2290","-1","","0"
"2021-04-04 00:02:03","9130000","0","7899122202","2088747","2291","1","","0"
"2021-04-05 00:02:03","9140000","10000","7900901501","1779299","2292","1","","0"
"2021-04-06 00:02:03","9140000","0","7902923325","2021824","2292","0","","0"
"2021-04-07 00:02:03","9140000","0","7905434873","2511548","2292","0","","0"
"2021-04-08 00:02:04","9140000","0","7907357201","1922328","2292","0","","0"
"2021-04-09 00:02:03","9140000","0","7908910793","1553592","2292","0","","0"
"2021-04-10 00:02:03","9140000","0","7910185286","1274493","2293","1","","0"
"2021-04-11 00:02:04","9150000","10000","7911510423","1325137","2293","0","","0"
"2021-04-12 00:02:03","9150000","0","7913181209","1670786","2294","1","","0"
"2021-04-13 00:02:03","9150000","0","7914509558","1328349","2294","0","","0"
"2021-04-14 00:02:04","9150000","0","7916596446","2086888","2294","0","","0"
"2021-04-15 00:02:04","9150000","0","7917761345","1164899","2294","0","","0"
"2021-04-16 00:02:04","9150000","0","7918746683","985338","2295","1","","0"
"2021-04-17 00:02:04","9150000","0","7920078615","1331932","2295","0","","0"
"2021-04-18 00:02:04","9150000","0","7921407716","1329101","2295","0","","0"
"2021-04-19 00:02:04","9150000","0","7922792549","1384833","2295","0","","0"
"2021-04-20 00:02:04","9150000","0","7924161180","1368631","2295","0","","0"
"2021-04-21 00:02:03","9150000","0","7925001049","839869","2296","1","","0"
"2021-04-22 00:02:03","9150000","0","7926645210","1644161","2296","0","","0"
"2021-04-23 00:02:04","9150000","0","7927936912","1291702","2297","1","","0"
"2021-04-24 00:02:04","9150000","0","7929506975","1570063","2298","1","","0"
"2021-04-25 00:02:04","9150000","0","7931062522","1555547","2298","0","","0"
"2021-04-26 00:02:05","9150000","0","7932634694","1572172","2299","1","","0"
"2021-04-27 00:02:03","9150000","0","7933801324","1166630","2299","0","","0"
"2021-04-28 00:02:03","9150000","0","7936193165","2391841","2300","1","","0"
"2021-04-29 00:02:04","9150000","0","7937799753","1606588","2300","0","","0"
"2021-04-30 00:02:03","9160000","10000","7939136162","1336409","2300","0","","0"
"2021-05-01 00:02:05","9160000","0","7940942089","1805927","2301","1","","0"
"2021-05-02 00:02:03","9160000","0","7942328425","1386336","2301","0","","0"
"2021-05-03 00:02:05","9160000","0","7943914710","1586285","2302","1","","0"
"2021-05-04 00:02:04","9160000","0","7945072108","1157398","2303","1","","0"
"2021-05-05 00:02:04","9160000","0","7948182392","3110284","2303","0","","0"
"2021-05-06 00:02:03","9160000","0","7950811293","2628901","2304","1","","0"
"2021-05-07 00:02:04","9160000","0","7953292189","2480896","2305","1","","0"
"2021-05-08 00:02:04","9160000","0","7955207371","1915182","2305","0","","0"
"2021-05-09 00:02:03","9160000","0","7956787168","1579797","2306","1","","0"
"2021-05-10 00:02:05","9170000","10000","7960244427","3457259","2306","0","","0"
"2021-05-11 00:02:04","9170000","0","7963123436","2879009","2306","0","","0"
"2021-05-12 00:02:05","9170000","0","7964446361","1322925","2305","-1","","0"
"2021-05-13 00:02:04","9170000","0","7965551807","1105446","2306","1","","0"
"2021-05-14 00:02:04","9170000","0","7966945059","1393252","2306","0","","0"
"2021-05-15 00:02:04","9170000","0","7965316615","-1628444","2306","0","","0"
"2021-05-16 00:02:05","9170000","0","7966331542","1014927","2307","1","","0"
"2021-05-17 00:02:04","9170000","0","7968147283","1815741","2308","1","","0"
"2021-05-18 00:02:05","9170000","0","7970885674","2738391","2309","1","","0"
"2021-05-19 00:02:03","9170000","0","7973864986","2979312","2309","0","","0"
"2021-05-20 00:02:03","9170000","0","7976040536","2175550","2309","0","","0"
"2021-05-21 00:02:04","9180000","10000","7977559467","1518931","2309","0","","0"
"2021-05-22 00:02:04","9180000","0","7979099457","1539990","2310","1","","0"
"2021-05-23 00:02:05","9180000","0","7981154990","2055533","2310","0","","0"
"2021-05-24 00:02:04","9180000","0","7983620432","2465442","2311","1","","0"
"2021-05-25 00:02:04","9180000","0","7985632229","2011797","2311","0","","0"
"2021-05-26 00:02:03","9180000","0","7988357204","2724975","2311","0","","0"
"2021-05-27 00:02:03","9180000","0","7989987643","1630439","2311","0","","0"
"2021-05-28 00:02:04","9180000","0","7991408304","1420661","2311","0","","0"
"2021-05-29 00:02:05","9180000","0","7992740697","1332393","2311","0","","0"
"2021-05-30 00:02:05","9180000","0","7993845163","1104466","2312","1","","0"
"2021-05-31 00:02:04","9180000","0","7995970113","2124950","2313","1","","0"
"2021-06-01 00:02:04","9180000","0","7998026870","2056757","2314","1","","0"
"2021-06-02 00:02:03","9190000","10000","8000241498","2214628","2314","0","","0"
"2021-06-03 00:02:03","9190000","0","8001591091","1349593","2314","0","","0"
"2021-06-04 00:02:03","9190000","0","8002728216","1137125","2315","1","","0"
"2021-06-05 00:02:03","9190000","0","8004060340","1332124","2316","1","","0"
"2021-06-06 00:02:03","9190000","0","8005762154","1701814","2316","0","","0"
"2021-06-07 00:02:03","9190000","0","8007411390","1649236","2316","0","","0"
"2021-06-08 00:02:05","9190000","0","8008725636","1314246","2317","1","","0"
"2021-06-09 00:02:02","9190000","0","8009779922","1054286","2317","0","","0"
"2021-06-10 00:02:03","9190000","0","8010735949","956027","2318","1","","0"
"2021-06-11 00:02:04","9190000","0","8011996105","1260156","2318","0","","0"
"2021-06-12 00:02:04","9190000","0","8013717165","1721060","2319","1","","0"
"2021-06-13 00:02:03","9190000","0","8015125137","1407972","2319","0","","0"
"2021-06-14 00:02:03","9190000","0","8016654594","1529457","2320","1","","0"
"2021-06-15 00:02:03","9190000","0","8018872953","2218359","2320","0","","0"
"2021-06-16 00:02:03","9190000","0","8020690159","1817206","2319","-1","","0"
"2021-06-17 00:02:03","9190000","0","8021994154","1303995","2321","2","","0"
"2021-06-18 00:02:03","9190000","0","8023597542","1603388","2321","0","","0"
"2021-06-19 00:02:03","9200000","10000","8025175874","1578332","2322","1","","0"
"2021-06-20 00:02:03","9200000","0","8026999878","1824004","2322","0","","0"
"2021-06-21 00:02:03","9200000","0","8029572250","2572372","2323","1","","0"
"2021-06-22 00:02:03","9200000","0","8031695659","2123409","2323","0","","0"
"2021-06-23 00:02:04","9200000","0","8033029128","1333469","2324","1","","0"
"2021-06-24 00:02:03","9200000","0","8034900047","1870919","2325","1","","0"
"2021-06-25 00:02:03","9200000","0","8036973639","2073592","2325","0","","0"
"2021-06-26 00:02:04","9200000","0","8038437100","1463461","2326","1","","0"
"2021-06-27 00:02:04","9210000","10000","8040423011","1985911","2326","0","","0"
"2021-06-28 00:02:03","9210000","0","8043041804","2618793","2326","0","","0"
"2021-06-29 00:02:03","9210000","0","8045641333","2599529","2327","1","","0"
"2021-06-30 00:02:03","9260000","50000","8047775735","2134402","2327","0","","0"
"2021-07-01 00:02:04","9280000","20000","8052010175","4234440","2327","0","","0"
"2021-07-02 00:02:03","9290000","10000","8054615128","2604953","2328","1","","0"
"2021-07-03 00:02:04","9300000","10000","8057241005","2625877","2329","1","","0"
"2021-07-04 00:02:04","9300000","0","8060237308","2996303","2330","1","","0"
"2021-07-05 00:02:04","9310000","10000","8064687067","4449759","2330","0","","0"
"2021-07-06 00:02:04","9310000","0","8066980061","2292994","2331","1","","0"
"2021-07-07 00:02:03","9310000","0","8070640044","3659983","2331","0","","0"
"2021-07-08 00:02:04","9310000","0","8073377607","2737563","2331","0","","0"
"2021-07-09 00:02:05","9320000","10000","8075506025","2128418","2332","1","","0"
"2021-07-10 00:02:04","9320000","0","8078237023","2730998","2333","1","","0"
"2021-07-11 00:02:03","9320000","0","8081185884","2948861","2333","0","","0"
"2021-07-12 00:02:03","9320000","0","8083826063","2640179","2334","1","","0"
"2021-07-13 00:02:02","9330000","10000","8085938140","2112077","2335","1","","0"
"2021-07-14 00:02:03","9330000","0","8089346486","3408346","2335","0","","0"
"2021-07-15 00:02:03","9330000","0","8091079403","1732917","2335","0","","0"
"2021-07-16 00:02:03","9330000","0","8092608902","1529499","2336","1","","0"
"2021-07-17 00:02:02","9330000","0","8094206371","1597469","2337","1","","0"
"2021-07-18 00:02:02","9330000","0","8095897264","1690893","2336","-1","","0"
"2021-07-19 00:02:03","9330000","0","8097821045","1923781","2338","2","","0"
"2021-07-20 00:02:03","9330000","0","8099934246","2113201","2338","0","","0"
"2021-07-21 00:02:03","9330000","0","8101620387","1686141","2339","1","","0"
"2021-07-22 00:02:02","9340000","10000","8103517349","1896962","2339","0","","0"
"2021-07-23 00:02:03","9340000","0","8105480142","1962793","2340","1","","0"
"2021-07-24 00:02:02","9340000","0","8107852888","2372746","2341","1","","0"
"2021-07-25 00:02:03","9340000","0","8110923471","3070583","2341","0","","0"
"2021-07-26 00:02:03","9340000","0","8113227800","2304329","2343","2","","0"
"2021-07-27 00:02:02","9350000","10000","8115859581","2631781","2345","2","","0"
"2021-07-28 00:02:03","9350000","0","8119267433","3407852","2346","1","","0"
"2021-07-29 00:02:02","9350000","0","8122103818","2836385","2347","1","","0"
"2021-07-30 00:02:03","9350000","0","8124587033","2483215","2347","0","","0"
"2021-07-31 00:02:03","9350000","0","8126843803","2256770","2348","1","","0"
"2021-08-01 00:02:02","9350000","0","8129154253","2310450","2349","1","","0"
"2021-08-02 00:02:02","9360000","10000","8132942227","3787974","2350","1","","0"
"2021-08-03 00:02:02","9360000","0","8137025431","4083204","2351","1","","0"
"2021-08-04 00:02:03","9360000","0","8140406793","3381362","2352","1","","0"
"2021-08-05 00:02:02","9360000","0","8143460786","3053993","2353","1","","0"
"2021-08-06 00:02:02","9370000","10000","8146994150","3533364","2354","1","","0"
"2021-08-07 00:02:02","9370000","0","8149758377","2764227","2355","1","","0"
"2021-08-08 00:02:03","9370000","0","8153822308","4063931","2356","1","","0"
"2021-08-09 00:02:03","9370000","0","8156899374","3077066","2357","1","","0"
"2021-08-10 00:02:03","9380000","10000","8160307194","3407820","2358","1","","0"
"2021-08-11 00:02:03","9380000","0","8160307194","0","2358","0","","0"
"2021-08-12 00:02:03","9380000","0","8167142421","6835227","2359","1","","0"
"2021-08-13 00:02:03","9380000","0","8170352146","3209725","2359","0","","0"
"2021-08-14 00:02:03","9380000","0","8173295001","2942855","2360","1","","0"
"2021-08-15 00:02:03","9390000","10000","8176039746","2744745","2361","1","","0"
"2021-08-16 00:02:04","9410000","20000","8180168542","4128796","2362","1","","0"
"2021-08-17 00:02:03","9430000","20000","8184815191","4646649","2363","1","","0"
"2021-08-18 00:02:02","9430000","0","8190628085","5812894","2363","0","","0"